Weather History for Cecil Field, FL

Change the Weather History Date:

Friday, February 22, 2013

  Actual Average (KJAX) Record (KJAX)
Temperature  
Mean Temperature 68 °F 58 °F  
Max Temperature 82 °F 70 °F 85 °F (1961)
Min Temperature 53 °F 46 °F 29 °F (1958)
Degree Days  
Heating Degree Days 0 8  
Month to date heating degree days 211  
Since 1 July heating degree days 1087  
Cooling Degree Days 2 1  
Month to date cooling degree days 17  
Year to date cooling degree days 28  
Growing Degree Days 18 (Base 50)    
Moisture  
Dew Point 61 °F    
Average Humidity 92    
Maximum Humidity 100    
Minimum Humidity 48    
Precipitation  
Precipitation 0.00 in 0.13 in 2.53 in (1998)
Month to date precipitation 2.46  
Year to date precipitation 5.76  
Snow  
Snow 0.00 in 0.00 in 0.00 in (2002)
Month to date snowfall 0.0  
Since 1 July snowfall T  
Snow Depth -    
Sea Level Pressure  
Sea Level Pressure 30.05 in    
Wind  
Wind Speed 2 mph (SE)    
Max Wind Speed 14 mph    
Max Gust Speed -    
Visibility 7 miles    
Events Fog , Rain    
T = Trace of Precipitation, MM = Missing Value Source: NWS Daily Summary

Daily Weather History Graph

Daily Weather History Graph

Search for Another Location

Airport:

Trip Planner

Search our weather history database for the weather conditions in past years. The results will help you decide how hot, cold, wet, or windy it might be!

Date:

Astronomy

Feb. 22, 2013 Rise Set
Actual Time 7:00 AM EST 6:21 PM EST
Civil Twilight 6:36 AM EST 6:45 PM EST
Nautical Twilight 6:08 AM EST 7:13 PM EST
Astronomical Twilight 5:40 AM EST 7:41 PM EST
Moon 3:39 PM EST (2/22) 4:36 AM EST (2/22)
Length of Visible Light 12h 09m
Length of Day
11h 20m
Waxing Gibbous, 90% of the Moon is Illuminated
Feb 22
Waxing Gibbous
Feb 25
Full
Mar 4
Last Quarter
Mar 11
New
Mar 19
First Quarter

Hourly Weather History & Observations

Time (EST) Temp. Heat Index Dew Point Humidity Pressure Visibility Wind Dir Wind Speed Gust Speed Precip Events Conditions
12:15 AM 55.4 °F - 53.6 °F 94% 30.07 in 10.0 mi Calm Calm - N/A   Scattered Clouds
12:35 AM 55.4 °F - 53.6 °F 94% 30.07 in 10.0 mi Calm Calm - N/A   Scattered Clouds
12:55 AM 55.4 °F - 53.6 °F 94% 30.06 in 10.0 mi Calm Calm - N/A   Partly Cloudy
1:15 AM 55.4 °F - 53.6 °F 94% 30.06 in 10.0 mi Calm Calm - N/A   Partly Cloudy
1:35 AM 55.4 °F - 53.6 °F 94% 30.06 in 10.0 mi Calm Calm - N/A   Scattered Clouds
1:55 AM 55.4 °F - 53.6 °F 94% 30.06 in 10.0 mi Calm Calm - N/A   Scattered Clouds
2:15 AM 57.2 °F - 55.4 °F 94% 30.06 in 10.0 mi Calm Calm - N/A   Scattered Clouds
2:35 AM 55.4 °F - 53.6 °F 94% 30.05 in 10.0 mi Calm Calm - N/A   Partly Cloudy
2:55 AM 59.0 °F - 57.2 °F 94% 30.05 in 10.0 mi Calm Calm - N/A   Partly Cloudy
3:15 AM 57.2 °F - 57.2 °F 100% 30.05 in 10.0 mi Calm Calm - N/A   Clear
3:35 AM 55.4 °F - 55.4 °F 100% 30.04 in 7.0 mi Calm Calm - N/A   Partly Cloudy
3:55 AM 55.4 °F - 55.4 °F 100% 30.04 in 7.0 mi Calm Calm - N/A   Partly Cloudy
4:15 AM 55.4 °F - 55.4 °F 100% 30.04 in 2.5 mi Calm Calm - N/A   Clear
4:35 AM 53.6 °F - 53.6 °F 100% 30.04 in 0.2 mi Calm Calm - N/A Fog Fog
4:55 AM 55.4 °F - 55.4 °F 100% 30.04 in 0.8 mi Calm Calm - N/A   Mostly Cloudy
5:15 AM 53.6 °F - 53.6 °F 100% 30.04 in 5.0 mi Calm Calm - N/A   Mostly Cloudy
5:35 AM 57.2 °F - 57.2 °F 100% 30.05 in 5.0 mi Calm Calm - N/A   Mostly Cloudy
5:55 AM 59.0 °F - 59.0 °F 100% 30.05 in 4.0 mi Calm Calm - N/A   Overcast
6:15 AM 60.8 °F - 60.8 °F 100% 30.06 in 1.0 mi Calm Calm - N/A   Overcast
6:35 AM 60.8 °F - 60.8 °F 100% 30.07 in 0.8 mi Calm Calm - N/A   Overcast
7:30 AM 60.8 °F - 60.8 °F 100% 30.07 in 2.0 mi SSE 4.6 mph - N/A   Mostly Cloudy
7:50 AM 60.8 °F - 60.8 °F 100% 30.08 in 2.5 mi SSE 5.8 mph - N/A   Mostly Cloudy
8:30 AM 62.6 °F - 62.6 °F 100% 30.09 in 6.0 mi SSE 5.8 mph - N/A   Scattered Clouds
8:50 AM 64.4 °F - 64.4 °F 100% 30.09 in 7.0 mi SSE 5.8 mph - N/A   Clear
9:50 AM 71.6 °F - 64.4 °F 78% 30.09 in 10.0 mi South 6.9 mph - N/A   Clear
10:50 AM 77.0 °F - 64.4 °F 65% 30.08 in 10.0 mi South 11.5 mph - N/A   Partly Cloudy
11:50 AM 80.6 °F 82.3 °F 64.4 °F 58% 30.07 in 10.0 mi South 11.5 mph - N/A   Scattered Clouds
12:50 PM 82.4 °F 83.9 °F 64.4 °F 54% 30.04 in 10.0 mi SSE 13.8 mph - N/A   Mostly Cloudy
1:50 PM 80.6 °F 81.8 °F 62.6 °F 54% 30.03 in 10.0 mi South 6.9 mph - N/A   Mostly Cloudy
2:50 PM 82.4 °F 82.9 °F 60.8 °F 48% 30.02 in 10.0 mi South 6.9 mph - N/A   Mostly Cloudy
3:50 PM 80.6 °F 81.8 °F 62.6 °F 54% 30.01 in 10.0 mi ESE 5.8 mph - N/A   Mostly Cloudy
4:50 PM 75.2 °F - 66.2 °F 73% 30.00 in 10.0 mi East 5.8 mph - N/A   Mostly Cloudy
7:50 PM 68.0 °F - 68.0 °F 100% 30.04 in 6.0 mi NNW 5.8 mph - N/A Rain Light Rain
8:15 PM 68.0 °F - 68.0 °F 100% 30.04 in 9.0 mi North 8.1 mph - N/A   Mostly Cloudy
8:35 PM 68.0 °F - 68.0 °F 100% 30.04 in 8.0 mi NNW 10.4 mph - N/A   Mostly Cloudy
8:55 PM 66.2 °F - 66.2 °F 100% 30.04 in 7.0 mi Calm Calm - N/A   Overcast
9:15 PM 66.2 °F - 66.2 °F 100% 30.05 in 9.0 mi Calm Calm - N/A   Scattered Clouds
9:35 PM 66.2 °F - 66.2 °F 100% 30.05 in 4.0 mi NNE 3.5 mph - N/A Rain Light Rain
9:55 PM 66.2 °F - 66.2 °F 100% 30.05 in 7.0 mi Calm Calm - N/A   Overcast
10:15 PM 66.2 °F - 66.2 °F 100% 30.05 in 7.0 mi Calm Calm - N/A   Overcast
10:35 PM 66.2 °F - 66.2 °F 100% 30.04 in 9.0 mi NNW 4.6 mph - N/A   Overcast
10:55 PM 64.4 °F - 64.4 °F 100% 30.03 in 8.0 mi NNW 4.6 mph - N/A   Overcast
11:15 PM 64.4 °F - 64.4 °F 100% 30.02 in 8.0 mi Calm Calm - N/A   Overcast
11:55 PM 62.6 °F - 62.6 °F 100% 30.01 in 1.2 mi Calm Calm - N/A   Overcast